Location: Los Ranchitos
(37.9930°N, 122.5425°W)
Time: 08:40:37
(UTC+00:00)

SJ 16-02 - Pass Details

Date: 21 September 2020
Orbit: 606 x 616 km, 75.0° (Epoch: 28 October)

Event Time Altitude Azimuth Distance (km) Brightness Sun altitude
Rises 10:59:51 0° 359° (N) 2,875 5.2 -34.1°
Reaches altitude 10° 11:02:44 10° 19° (NNE) 1,968 4.5 -33.6°
Maximum altitude 11:05:46 18° 63° (ENE) 1,507 4.0 -33.1°
Drops below altitude 10° 11:08:47 10° 107° (ESE) 1,964 4.4 -32.6°
Sets 11:11:38 0° 126° (SE) 2,865 5.1 -32.1°
